Driggs, ID

4:55 PM MDT on April 30, 2017 (GMT -0600)
Driggs

Weather History for KDIJ - May, 2012

Change the Weather History Date:

Thursday, May 3, 2012

  Actual Average (KJAC) Record (KJAC)
Temperature  
Mean Temperature 49 °F -  
Max Temperature 59 °F 57 °F 73 °F (1966)
Min Temperature 39 °F 27 °F 14 °F (1988)
Degree Days  
Heating Degree Days 16    
Moisture  
Dew Point 29 °F    
Average Humidity 54    
Maximum Humidity 76    
Minimum Humidity 23    
Precipitation  
Precipitation 0.00 in - - ()
Sea Level Pressure  
Sea Level Pressure 29.79 in    
Wind  
Wind Speed 8 mph (South)    
Max Wind Speed 25 mph    
Max Gust Speed 33 mph    
Visibility 8 miles    
Events      
Averages and records for this station are not official NWS values.
T = Trace of Precipitation, MM = Missing Value Source: NWS Daily Summary

Daily Weather History Graph

Daily Weather History Graph

Search for Another Location

Airport or City:

Trip Planner

Search our weather history database for the weather conditions in past years. The results will help you decide how hot, cold, wet, or windy it might be!

Date:

Astronomy

May. 03, 2012 Rise Set
Actual Time 6:13 AM MDT 8:30 PM MDT
Civil Twilight 5:41 AM MDT 9:02 PM MDT
Nautical Twilight 5:01 AM MDT 9:41 PM MDT
Astronomical Twilight 4:18 AM MDT 10:25 PM MDT
Moon 5:55 PM MDT (5/3) 4:24 AM MDT (5/3)
Length of Visible Light 15h 20m
Length of Day
14h 17m
Waxing Gibbous, 91% of the Moon is Illuminated
May 3
Waxing Gibbous
May 5
Full
May 12
Last Quarter
May 20
New
May 28
First Quarter

Hourly Weather History & Observations

Time (MDT) Temp. Windchill Dew Point Humidity Pressure Visibility Wind Dir Wind Speed Gust Speed Precip Events Conditions
12:56 AM 39.9 °F 33.9 °F 26.1 °F 58% 29.81 in 9.0 mi ESE 9.2 mph - N/A   Partly Cloudy
1:56 AM 39.9 °F - 28.0 °F 63% 29.81 in 8.0 mi Calm Calm - N/A   Scattered Clouds
2:56 AM 41.0 °F 39.0 °F 28.0 °F 60% 29.80 in 9.0 mi Variable 3.5 mph - N/A   Scattered Clouds
3:56 AM 39.9 °F 36.7 °F 31.1 °F 71% 29.82 in 8.0 mi ESE 4.6 mph - N/A   Clear
4:56 AM 41.9 °F 35.4 °F 29.1 °F 61% 29.79 in 9.0 mi NE 11.5 mph - N/A   Scattered Clouds
5:56 AM 41.0 °F - 29.1 °F 63% 29.79 in 9.0 mi Calm Calm - N/A   Clear
6:56 AM 39.9 °F - 30.0 °F 68% 29.80 in 7.0 mi Calm Calm - N/A   Scattered Clouds
7:56 AM 43.0 °F 39.5 °F 30.0 °F 60% 29.75 in 7.0 mi SW 5.8 mph - N/A   Overcast
8:56 AM 45.9 °F 43.6 °F 29.1 °F 52% 29.74 in 7.0 mi South 4.6 mph - N/A   Overcast
9:56 AM 48.9 °F - 27.1 °F 43% 29.74 in 7.0 mi Calm Calm - N/A   Scattered Clouds
10:56 AM 55.9 °F - 26.1 °F 32% 29.70 in 9.0 mi SSW 5.8 mph - N/A   Mostly Cloudy
11:56 AM 59.9 °F - 22.1 °F 23% 29.69 in 7.0 mi SSW 16.1 mph - N/A   Scattered Clouds
12:56 PM 55.9 °F - 25.2 °F 31% 29.73 in 5.0 mi SSW 25.3 mph - N/A   Haze
1:56 PM 55.9 °F - 24.1 °F 29% 29.74 in 7.0 mi SSW 20.7 mph 33.4 mph N/A   Scattered Clouds
2:56 PM 52.9 °F - 28.0 °F 38% 29.78 in 7.0 mi WSW 19.6 mph - N/A   Partly Cloudy
3:56 PM 50.0 °F - 31.1 °F 48% 29.82 in 7.0 mi WSW 13.8 mph - N/A   Mostly Cloudy
4:56 PM 47.8 °F - 32.0 °F 54% 29.83 in 6.0 mi South 18.4 mph - N/A   Haze
5:56 PM 47.8 °F - 32.9 °F 56% 29.84 in 7.0 mi SE 8.1 mph - 0.00 in   Overcast
6:56 PM 50.9 °F - 32.9 °F 50% 29.82 in 7.0 mi SSE 10.4 mph - N/A   Mostly Cloudy
7:56 PM 48.9 °F - 32.9 °F 54% 29.83 in 8.0 mi South 9.2 mph - N/A   Mostly Cloudy
8:56 PM 46.9 °F - 32.9 °F 58% 29.84 in 8.0 mi South 4.6 mph - N/A   Overcast
9:56 PM 43.9 °F 41.3 °F 32.9 °F 65% 29.84 in 8.0 mi ESE 4.6 mph - N/A   Mostly Cloudy
10:56 PM 41.0 °F 36.4 °F 32.9 °F 73% 29.84 in 8.0 mi South 6.9 mph - N/A   Partly Cloudy
11:56 PM 41.0 °F 37.1 °F 34.0 °F 76% 29.83 in 9.0 mi South 5.8 mph - N/A   Mostly Cloudy